,,,PA_Meas_PMT16A,,PR_Meas_QMR101_102,,RH_Meas_QMH101,,SR_Meas_QMS101,,TA_Meas_QMH101,,GenWind,,GenWind,
date,time,status,PA,status,PR,status,RH,status,SR,status,TA,status,DirAvg,status,SpdAvg,
2012-06-11, 00:00:04,VALID,1009.46,VALID,0,VALID,104,VALID,0,VALID,24.0058,VALID,112,VALID,0.221875,
2012-06-11, 00:01:04,VALID,1009.45,VALID,0,VALID,104,VALID,0,VALID,24.0058,VALID,112,VALID,0,
2012-06-11, 00:02:04,VALID,1009.45,VALID,0,VALID,104,VALID,0,VALID,23.9863,VALID,112,VALID,0,
2012-06-11, 00:03:04,VALID,1009.45,VALID,0,VALID,104,VALID,0,VALID,24.0058,VALID,112,VALID,0,
2012-06-11, 00:04:04,VALID,1009.4,VALID,0,VALID,104,VALID,0,VALID,23.9863,VALID,112,VALID,0,
2012-06-11, 00:05:04,VALID,1009.4,VALID,0,VALID,104,VALID,0,VALID,23.9668,VALID,112,VALID,0.228125,
2012-06-11, 00:06:04,VALID,1009.38,VALID,0,VALID,104,VALID,0,VALID,23.9668,VALID,112,VALID,0.0859375,
2012-06-11, 00:07:04,VALID,1009.41,VALID,0,VALID,104,VALID,0,VALID,23.9668,VALID,112,VALID,0,
2012-06-11, 00:08:04,VALID,1009.38,VALID,0,VALID,104,VALID,0,VALID,23.9473,VALID,112,VALID,0,
2012-06-11, 00:09:04,VALID,1009.39,VALID,0,VALID,104,VALID,0,VALID,23.9473,VALID,112,VALID,0,
2012-06-11, 00:10:04,VALID,1009.41,VALID,0,VALID,104,VALID,0,VALID,23.9473,VALID,112,VALID,0,
2012-06-11, 00:11:04,VALID,1009.39,VALID,0,VALID,104,VALID,0,VALID,23.9668,VALID,112,VALID,0.190234,
2012-06-11, 00:12:04,VALID,1009.4,VALID,0,VALID,104,VALID,0,VALID,23.9863,VALID,112,VALID,0,
2012-06-11, 00:13:04,VALID,1009.39,VALID,0,VALID,104,VALID,0,VALID,23.9863,VALID,112,VALID,0,
2012-06-11, 00:14:04,VALID,1009.38,VALID,0,VALID,104,VALID,0,VALID,23.9863,VALID,112,VALID,0.196875,
2012-06-11, 00:15:04,VALID,1009.37,VALID,0,VALID,104,VALID,0,VALID,24.0058,VALID,112,VALID,0.142578,
2012-06-11, 00:16:04,VALID,1009.34,VALID,0,VALID,104,VALID,0,VALID,24.0058,VALID,112,VALID,0.240234,
2012-06-11, 00:17:04,VALID,1009.36,VALID,0,VALID,104,VALID,0,VALID,24.0448,VALID,112,VALID,0.365625,
2012-06-11, 00:18:04,VALID,1009.36,VALID,0,VALID,104,VALID,0,VALID,24.0643,VALID,112,VALID,0,
2012-06-11, 00:19:04,VALID,1009.31,VALID,0,VALID,104,VALID,0,VALID,24.0643,VALID,112,VALID,0,
2012-06-11, 00:20:04,VALID,1009.32,VALID,0,VALID,104,VALID,0,VALID,24.0429,VALID,112,VALID,0,
2012-06-11, 00:21:04,VALID,1009.3,VALID,0,VALID,104,VALID,0,VALID,24.0837,VALID,112,VALID,0,
2012-06-11, 00:22:04,VALID,1009.28,VALID,0,VALID,104,VALID,0.112112,VALID,24.0837,VALID,112,VALID,0,
2012-06-11, 00:23:04,VALID,1009.29,VALID,0,VALID,104,VALID,0,VALID,24.1032,VALID,112,VALID,0,
2012-06-11, 00:24:04,VALID,1009.26,VALID,0,VALID,104,VALID,0,VALID,24.1227,VALID,112,VALID,0,
2012-06-11, 00:25:04,VALID,1009.27,VALID,0,VALID,104,VALID,0,VALID,24.1227,VALID,112,VALID,0,
2012-06-11, 00:26:04,VALID,1009.26,VALID,0,VALID,104,VALID,0,VALID,24.1209,VALID,112,VALID,0,
2012-06-11, 00:27:04,VALID,1009.24,VALID,0,VALID,104,VALID,0,VALID,24.1617,VALID,112,VALID,0,
2012-06-11, 00:28:04,VALID,1009.26,VALID,0,VALID,104,VALID,0,VALID,24.1617,VALID,112,VALID,0.307813,
2012-06-11, 00:29:04,VALID,1009.27,VALID,0,VALID,104,VALID,0,VALID,24.1812,VALID,112,VALID,0.365234,
2012-06-11, 00:30:04,VALID,1009.28,VALID,0,VALID,104,VALID,0,VALID,24.2007,VALID,112,VALID,0.260156,
2012-06-11, 00:31:04,VALID,1009.29,VALID,0,VALID,104,VALID,0,VALID,24.2202,VALID,112,VALID,0.0929687,
2012-06-11, 00:32:04,VALID,1009.28,VALID,0,VALID,104,VALID,0,VALID,24.1988,VALID,112,VALID,0,
2012-06-11, 00:33:04,VALID,1009.23,VALID,0,VALID,104,VALID,0,VALID,24.2396,VALID,112,VALID,0,
2012-06-11, 00:34:04,VALID,1009.21,VALID,0,VALID,104,VALID,0,VALID,24.2396,VALID,112,VALID,0,
2012-06-11, 00:35:04,VALID,1009.18,VALID,0,VALID,104,VALID,0,VALID,24.2591,VALID,112,VALID,0,
2012-06-11, 00:36:04,VALID,1009.17,VALID,0,VALID,104,VALID,0,VALID,24.2396,VALID,112,VALID,0,
2012-06-11, 00:37:04,VALID,1009.15,VALID,0,VALID,104,VALID,0,VALID,24.2591,VALID,112,VALID,0,
2012-06-11, 00:38:04,VALID,1009.15,VALID,0,VALID,104,VALID,0,VALID,24.2183,VALID,112,VALID,0,
2012-06-11, 00:39:04,VALID,1009.14,VALID,0,VALID,104,VALID,0,VALID,24.2007,VALID,112,VALID,0,
2012-06-11, 00:40:04,VALID,1009.14,VALID,0,VALID,104,VALID,0,VALID,24.1617,VALID,112,VALID,0.00234375,
2012-06-11, 00:41:04,VALID,1009.11,VALID,0,VALID,104,VALID,0,VALID,24.1422,VALID,112,VALID,0,
2012-06-11, 00:42:04,VALID,1009.11,VALID,0,VALID,104,VALID,0,VALID,24.1032,VALID,112,VALID,0.234375,
2012-06-11, 00:43:04,VALID,1009.11,VALID,0,VALID,104,VALID,0,VALID,24.0837,VALID,112,VALID,0.0238281,
2012-06-11, 00:44:04,VALID,1009.13,VALID,0,VALID,104,VALID,0,VALID,24.0661,VALID,112,VALID,0,
2012-06-11, 00:45:04,VALID,1009.14,VALID,0,VALID,104,VALID,0,VALID,24.0448,VALID,112,VALID,0,
2012-06-11, 00:46:04,VALID,1009.1,VALID,0,VALID,104,VALID,0,VALID,24.0253,VALID,112,VALID,0,
2012-06-11, 00:47:04,VALID,1009.07,VALID,0,VALID,104,VALID,0,VALID,24.0058,VALID,112,VALID,0.352344,
2012-06-11, 00:48:04,VALID,1009.06,VALID,0,VALID,104,VALID,0,VALID,23.9863,VALID,112,VALID,0.390234,
2012-06-11, 00:49:04,VALID,1009.1,VALID,0,VALID,104,VALID,0,VALID,23.9668,VALID,112,VALID,0.160938,
2012-06-11, 00:50:04,VALID,1009.1,VALID,0,VALID,104,VALID,0,VALID,23.9473,VALID,112,VALID,0.279297,
2012-06-11, 00:51:04,VALID,1009.04,VALID,0,VALID,104,VALID,0,VALID,23.9278,VALID,112,VALID,0.26875,
2012-06-11, 00:52:04,VALID,1008.99,VALID,0,VALID,104,VALID,0,VALID,23.9084,VALID,112,VALID,0,
2012-06-11, 00:53:04,VALID,1008.96,VALID,0,VALID,104,VALID,0,VALID,23.8871,VALID,112,VALID,0,
2012-06-11, 00:54:04,VALID,1008.93,VALID,0,VALID,104,VALID,0,VALID,23.9065,VALID,112,VALID,0,
2012-06-11, 00:55:04,VALID,1008.89,VALID,0,VALID,104,VALID,0,VALID,23.9297,VALID,112,VALID,0,
2012-06-11, 00:56:04,VALID,1008.87,VALID,0,VALID,104,VALID,0,VALID,23.9084,VALID,112,VALID,0,
2012-06-11, 00:57:04,VALID,1008.89,VALID,0,VALID,104,VALID,0,VALID,23.9084,VALID,112,VALID,0,
2012-06-11, 00:58:04,VALID,1008.88,VALID,0,VALID,104,VALID,0,VALID,23.8889,VALID,112,VALID,0,
2012-06-11, 00:59:04,VALID,1008.84,VALID,0,VALID,104,VALID,0,VALID,23.8676,VALID,112,VALID,0,
2012-06-11, 01:00:04,VALID,1008.84,VALID,0,VALID,104,VALID,0,VALID,23.8694,VALID,112,VALID,0,
2012-06-11, 01:01:04,VALID,1008.85,VALID,0,VALID,104,VALID,0,VALID,23.8694,VALID,112,VALID,0,
2012-06-11, 01:02:04,VALID,1008.9,VALID,0,VALID,104,VALID,0,VALID,23.8694,VALID,112,VALID,0,
2012-06-11, 01:03:04,VALID,1008.92,VALID,0,VALID,104,VALID,0,VALID,23.8694,VALID,112,VALID,0,
2012-06-11, 01:04:04,VALID,1008.89,VALID,0,VALID,104,VALID,0,VALID,23.8694,VALID,112,VALID,0,
2012-06-11, 01:05:04,VALID,1008.9,VALID,0,VALID,104,VALID,0,VALID,23.9084,VALID,103,VALID,0.475391,
2012-06-11, 01:06:04,VALID,1008.84,VALID,0,VALID,104,VALID,0,VALID,23.8889,VALID,103,VALID,0.387891,
2012-06-11, 01:07:04,VALID,1008.82,VALID,0,VALID,104,VALID,0,VALID,23.9278,VALID,76,VALID,0.450391,
2012-06-11, 01:08:04,VALID,1008.8,VALID,0,VALID,104,VALID,0,VALID,23.9278,VALID,76,VALID,0.280078,
2012-06-11, 01:09:04,VALID,1008.79,VALID,0,VALID,104,VALID,0,VALID,23.9084,VALID,76,VALID,0.351172,
2012-06-11, 01:10:04,VALID,1008.78,VALID,0,VALID,104,VALID,0,VALID,23.9278,VALID,73,VALID,0.485547,
2012-06-11, 01:11:04,VALID,1008.75,VALID,0,VALID,104,VALID,0,VALID,23.9278,VALID,73,VALID,0.415234,
2012-06-11, 01:12:04,VALID,1008.73,VALID,0,VALID,104,VALID,0,VALID,23.9278,VALID,73,VALID,0.468359,
2012-06-11, 01:13:04,VALID,1008.72,VALID,0,VALID,104,VALID,0,VALID,23.9278,VALID,73,VALID,0.416406,
2012-06-11, 01:14:04,VALID,1008.7,VALID,0,VALID,104,VALID,0,VALID,23.9084,VALID,71,VALID,0.489062,
2012-06-11, 01:15:04,VALID,1008.65,VALID,0,VALID,104,VALID,0,VALID,23.9278,VALID,63,VALID,0.378516,
2012-06-11, 01:16:04,VALID,1008.66,VALID,0,VALID,104,VALID,0,VALID,23.9084,VALID,63,VALID,0.229687,
2012-06-11, 01:17:04,VALID,1008.66,VALID,0,VALID,104,VALID,0,VALID,23.9084,VALID,63,VALID,0,
2012-06-11, 01:18:04,VALID,1008.66,VALID,0,VALID,104,VALID,0,VALID,23.8889,VALID,63,VALID,0,
2012-06-11, 01:19:04,VALID,1008.65,VALID,0,VALID,104,VALID,0,VALID,23.8694,VALID,63,VALID,0,
2012-06-11, 01:20:04,VALID,1008.64,VALID,0,VALID,104,VALID,0,VALID,23.8694,VALID,63,VALID,0,
2012-06-11, 01:21:04,VALID,1008.64,VALID,0,VALID,104,VALID,0,VALID,23.8304,VALID,63,VALID,0,
2012-06-11, 01:22:05,VALID,1008.64,VALID,0,VALID,104,VALID,0,VALID,23.8304,VALID,63,VALID,0,
2012-06-11, 01:23:05,VALID,1008.64,VALID,0,VALID,104,VALID,0,VALID,23.8304,VALID,63,VALID,0,
2012-06-11, 01:24:05,VALID,1008.62,VALID,0,VALID,104,VALID,0,VALID,23.8109,VALID,63,VALID,0,
2012-06-11, 01:25:05,VALID,1008.65,VALID,0,VALID,104,VALID,0,VALID,23.8109,VALID,63,VALID,0,
2012-06-11, 01:26:05,VALID,1008.63,VALID,0,VALID,104,VALID,0,VALID,23.8109,VALID,63,VALID,0,
2012-06-11, 01:27:05,VALID,1008.63,VALID,0,VALID,104,VALID,0,VALID,23.8109,VALID,63,VALID,0,
2012-06-11, 01:28:05,VALID,1008.63,VALID,0,VALID,104,VALID,0,VALID,23.7914,VALID,63,VALID,0,
2012-06-11, 01:29:05,VALID,1008.6,VALID,0,VALID,104,VALID,0,VALID,23.8109,VALID,63,VALID,0,
2012-06-11, 01:30:05,VALID,1008.59,VALID,0,VALID,104,VALID,0,VALID,23.8109,VALID,63,VALID,0,
2012-06-11, 01:31:05,VALID,1008.56,VALID,0,VALID,104,VALID,0,VALID,23.8109,VALID,63,VALID,0,
2012-06-11, 01:32:05,VALID,1008.53,VALID,0,VALID,104,VALID,0,VALID,23.8304,VALID,63,VALID,0,
2012-06-11, 01:33:05,VALID,1008.53,VALID,0,VALID,104,VALID,0,VALID,23.8109,VALID,63,VALID,0,
2012-06-11, 01:34:05,VALID,1008.48,VALID,0,VALID,104,VALID,0,VALID,23.8109,VALID,63,VALID,0,
2012-06-11, 01:35:05,VALID,1008.47,VALID,0,VALID,104,VALID,0,VALID,23.8109,VALID,63,VALID,0,
2012-06-11, 01:36:05,VALID,1008.45,VALID,0,VALID,104,VALID,0,VALID,23.8109,VALID,63,VALID,0,
2012-06-11, 01:37:05,VALID,1008.43,VALID,0,VALID,104,VALID,0,VALID,23.8304,VALID,63,VALID,0,
2012-06-11, 01:38:05,VALID,1008.42,VALID,0,VALID,104,VALID,0,VALID,23.8304,VALID,63,VALID,0,
2012-06-11, 01:39:05,VALID,1008.44,VALID,0,VALID,104,VALID,0,VALID,23.8304,VALID,63,VALID,0,
2012-06-11, 01:40:05,VALID,1008.42,VALID,0,VALID,104,VALID,0,VALID,23.8304,VALID,63,VALID,0,
2012-06-11, 01:41:05,VALID,1008.43,VALID,0,VALID,104,VALID,0,VALID,23.8304,VALID,63,VALID,0,
2012-06-11, 01:42:05,VALID,1008.44,VALID,0,VALID,104,VALID,0,VALID,23.8304,VALID,63,VALID,0,
2012-06-11, 01:43:05,VALID,1008.41,VALID,0,VALID,104,VALID,0,VALID,23.8499,VALID,63,VALID,0,
2012-06-11, 01:44:05,VALID,1008.44,VALID,0,VALID,104,VALID,0,VALID,23.8694,VALID,63,VALID,0,
2012-06-11, 01:45:05,VALID,1008.41,VALID,0,VALID,104,VALID,0,VALID,23.8889,VALID,63,VALID,0,
2012-06-11, 01:46:05,VALID,1008.4,VALID,0,VALID,104,VALID,0,VALID,23.8694,VALID,63,VALID,0,
2012-06-11, 01:47:05,VALID,1008.36,VALID,0,VALID,104,VALID,0,VALID,23.8694,VALID,63,VALID,0,
2012-06-11, 01:48:05,VALID,1008.34,VALID,0,VALID,104,VALID,0,VALID,23.8694,VALID,63,VALID,0,
2012-06-11, 01:49:05,VALID,1008.35,VALID,0,VALID,104,VALID,0,VALID,23.8694,VALID,63,VALID,0,
2012-06-11, 01:50:05,VALID,1008.33,VALID,0,VALID,104,VALID,0,VALID,23.8889,VALID,63,VALID,0,
2012-06-11, 01:51:05,VALID,1008.33,VALID,0,VALID,104,VALID,0,VALID,23.8694,VALID,63,VALID,0,
2012-06-11, 01:52:05,VALID,1008.33,VALID,0,VALID,104,VALID,0,VALID,23.8694,VALID,63,VALID,0,
2012-06-11, 01:53:05,VALID,1008.28,VALID,0,VALID,104,VALID,0,VALID,23.8499,VALID,63,VALID,0,
2012-06-11, 01:54:05,VALID,1008.25,VALID,0,VALID,104,VALID,0,VALID,23.8481,VALID,63,VALID,0,
2012-06-11, 01:55:05,VALID,1008.24,VALID,0,VALID,104,VALID,0.112112,VALID,23.8889,VALID,63,VALID,0,
2012-06-11, 01:56:05,VALID,1008.3,VALID,0,VALID,104,VALID,0.112112,VALID,23.8481,VALID,63,VALID,0,
2012-06-11, 01:57:05,VALID,1008.24,VALID,0,VALID,104,VALID,0,VALID,23.8694,VALID,63,VALID,0,
2012-06-11, 01:58:05,VALID,1008.25,VALID,0,VALID,104,VALID,0,VALID,23.8694,VALID,63,VALID,0,
2012-06-11, 01:59:05,VALID,1008.23,VALID,0,VALID,104,VALID,0,VALID,23.8499,VALID,63,VALID,0,
2012-06-11, 02:00:05,VALID,1008.24,VALID,0,VALID,104,VALID,0,VALID,23.8694,VALID,63,VALID,0,
2012-06-11, 02:01:05,VALID,1008.25,VALID,0,VALID,104,VALID,0,VALID,23.8499,VALID,63,VALID,0,
2012-06-11, 02:02:05,VALID,1008.23,VALID,0,VALID,104,VALID,0,VALID,23.8499,VALID,63,VALID,0.389453,
2012-06-11, 02:03:05,VALID,1008.22,VALID,0,VALID,104,VALID,0,VALID,23.8499,VALID,63,VALID,0.492969,
2012-06-11, 02:04:05,VALID,1008.22,VALID,0,VALID,104,VALID,0,VALID,23.8499,VALID,43,VALID,0.725,
2012-06-11, 02:05:05,VALID,1008.2,VALID,0,VALID,104,VALID,0,VALID,23.8694,VALID,43,VALID,0.467578,
2012-06-11, 02:06:05,VALID,1008.17,VALID,0,VALID,104,VALID,0,VALID,23.8694,VALID,43,VALID,0.289844,
2012-06-11, 02:07:05,VALID,1008.18,VALID,0,VALID,104,VALID,0,VALID,23.8499,VALID,43,VALID,0.360156,
2012-06-11, 02:08:05,VALID,1008.19,VALID,0,VALID,104,VALID,0,VALID,23.8304,VALID,43,VALID,0.203516,
2012-06-11, 02:09:05,VALID,1008.17,VALID,0,VALID,104,VALID,0,VALID,23.8091,VALID,43,VALID,0.194922,
2012-06-11, 02:10:05,VALID,1008.2,VALID,0,VALID,104,VALID,0,VALID,23.8304,VALID,43,VALID,0,
2012-06-11, 02:11:05,VALID,1008.19,VALID,0,VALID,104,VALID,0,VALID,23.8304,VALID,43,VALID,0,
2012-06-11, 02:12:05,VALID,1008.2,VALID,0,VALID,104,VALID,0,VALID,23.8304,VALID,43,VALID,0.219141,
2012-06-11, 02:13:05,VALID,1008.19,VALID,0,VALID,104,VALID,0,VALID,23.8091,VALID,43,VALID,0,
2012-06-11, 02:14:05,VALID,1008.22,VALID,0,VALID,104,VALID,0,VALID,23.8304,VALID,43,VALID,0.132422,
2012-06-11, 02:15:05,VALID,1008.21,VALID,0,VALID,104,VALID,0,VALID,23.8304,VALID,43,VALID,0,
2012-06-11, 02:16:05,VALID,1008.22,VALID,0,VALID,104,VALID,0,VALID,23.8304,VALID,43,VALID,0.0015625,
2012-06-11, 02:17:05,VALID,1008.23,VALID,0,VALID,104,VALID,0,VALID,23.8499,VALID,43,VALID,0,
2012-06-11, 02:18:05,VALID,1008.25,VALID,0,VALID,104,VALID,0,VALID,23.8499,VALID,43,VALID,0,
2012-06-11, 02:19:05,VALID,1008.28,VALID,0,VALID,104,VALID,0,VALID,23.8499,VALID,43,VALID,0,
2012-06-11, 02:20:05,VALID,1008.31,VALID,0,VALID,104,VALID,0,VALID,23.8304,VALID,43,VALID,0,
2012-06-11, 02:21:05,VALID,1008.32,VALID,0,VALID,104,VALID,0,VALID,23.8499,VALID,43,VALID,0.160547,
2012-06-11, 02:22:05,VALID,1008.34,VALID,0,VALID,104,VALID,0,VALID,23.8304,VALID,43,VALID,0,
2012-06-11, 02:23:05,VALID,1008.37,VALID,0,VALID,104,VALID,0.112112,VALID,23.8499,VALID,43,VALID,0,
2012-06-11, 02:24:05,VALID,1008.41,VALID,0,VALID,104,VALID,0,VALID,23.8286,VALID,43,VALID,0,
2012-06-11, 02:25:05,VALID,1008.43,VALID,0,VALID,104,VALID,0,VALID,23.8499,VALID,43,VALID,0.323828,
2012-06-11, 02:26:05,VALID,1008.43,VALID,0,VALID,104,VALID,0,VALID,23.8889,VALID,43,VALID,0.053125,
2012-06-11, 02:27:05,VALID,1008.45,VALID,0,VALID,104,VALID,0,VALID,23.9084,VALID,43,VALID,0,
2012-06-11, 02:28:05,VALID,1008.45,VALID,0,VALID,104,VALID,0,VALID,23.9084,VALID,43,VALID,0,
2012-06-11, 02:29:05,VALID,1008.45,VALID,0,VALID,104,VALID,0,VALID,23.9278,VALID,43,VALID,0.0609375,
2012-06-11, 02:30:05,VALID,1008.43,VALID,0,VALID,104,VALID,0,VALID,23.9278,VALID,43,VALID,0.407422,
2012-06-11, 02:31:05,VALID,1008.43,VALID,0,VALID,104,VALID,0,VALID,23.9473,VALID,43,VALID,0.0578125,
2012-06-11, 02:32:05,VALID,1008.47,VALID,0,VALID,104,VALID,0,VALID,23.9668,VALID,43,VALID,0,
2012-06-11, 02:33:05,VALID,1008.46,VALID,0,VALID,104,VALID,0,VALID,23.9668,VALID,43,VALID,0.249219,
2012-06-11, 02:34:05,VALID,1008.46,VALID,0,VALID,104,VALID,0,VALID,23.9668,VALID,43,VALID,0.300391,
2012-06-11, 02:35:05,VALID,1008.49,VALID,0,VALID,104,VALID,0,VALID,23.9863,VALID,43,VALID,0.345703,
2012-06-11, 02:36:05,VALID,1008.51,VALID,0,VALID,104,VALID,0,VALID,23.9863,VALID,43,VALID,0.496094,
2012-06-11, 02:37:05,VALID,1008.53,VALID,0,VALID,104,VALID,0,VALID,23.965,VALID,116,VALID,0.807813,
2012-06-11, 02:38:05,VALID,1008.55,VALID,0,VALID,104,VALID,0,VALID,24.0058,VALID,117,VALID,0.888672,
2012-06-11, 02:39:05,VALID,1008.57,VALID,0,VALID,104,VALID,0,VALID,24.0058,VALID,117,VALID,0.671875,
2012-06-11, 02:40:05,VALID,1008.52,VALID,0,VALID,104,VALID,0,VALID,24.0058,VALID,117,VALID,0.554297,
2012-06-11, 02:41:05,VALID,1008.55,VALID,0,VALID,104,VALID,0,VALID,24.0253,VALID,117,VALID,0.05625,
2012-06-11, 02:42:05,VALID,1008.54,VALID,0,VALID,104,VALID,0,VALID,24.0058,VALID,102,VALID,0.993359,
2012-06-11, 02:43:05,VALID,1008.54,VALID,0,VALID,104,VALID,0,VALID,24.0058,VALID,104,VALID,0.658984,
2012-06-11, 02:44:05,VALID,1008.55,VALID,0,VALID,104,VALID,0,VALID,24.0253,VALID,100,VALID,0.667578,
2012-06-11, 02:45:05,VALID,1008.54,VALID,0,VALID,104,VALID,0,VALID,24.0253,VALID,94,VALID,0.584375,
2012-06-11, 02:46:05,VALID,1008.55,VALID,0,VALID,104,VALID,0,VALID,24.0058,VALID,94,VALID,0.420312,
2012-06-11, 02:47:05,VALID,1008.55,VALID,0,VALID,104,VALID,0,VALID,24.0058,VALID,94,VALID,0.200391,
2012-06-11, 02:48:05,VALID,1008.55,VALID,0,VALID,104,VALID,0,VALID,24.0058,VALID,94,VALID,0.562891,
2012-06-11, 02:49:05,VALID,1008.54,VALID,0,VALID,104,VALID,0,VALID,24.0253,VALID,94,VALID,0.476953,
2012-06-11, 02:50:05,VALID,1008.54,VALID,0,VALID,104,VALID,0,VALID,24.0058,VALID,94,VALID,0.790625,
2012-06-11, 02:51:05,VALID,1008.56,VALID,0,VALID,104,VALID,0,VALID,24.0253,VALID,94,VALID,0.663281,
2012-06-11, 02:52:05,VALID,1008.57,VALID,0,VALID,104,VALID,0,VALID,24.0448,VALID,94,VALID,0.607422,
2012-06-11, 02:53:05,VALID,1008.57,VALID,0,VALID,104,VALID,0,VALID,24.0448,VALID,98,VALID,0.65,
2012-06-11, 02:54:05,VALID,1008.57,VALID,0,VALID,104,VALID,0,VALID,24.0253,VALID,103,VALID,0.456641,
2012-06-11, 02:55:05,VALID,1008.56,VALID,0,VALID,104,VALID,0,VALID,24.0448,VALID,103,VALID,0.325391,
2012-06-11, 02:56:05,VALID,1008.54,VALID,0,VALID,104,VALID,0,VALID,24.0235,VALID,87,VALID,0.541406,
2012-06-11, 02:57:05,VALID,1008.53,VALID,0,VALID,104,VALID,0,VALID,24.0253,VALID,69,VALID,0.435156,
2012-06-11, 02:58:05,VALID,1008.55,VALID,0,VALID,104,VALID,0,VALID,24.0253,VALID,69,VALID,0.312891,
2012-06-11, 02:59:05,VALID,1008.56,VALID,0,VALID,104,VALID,0,VALID,23.9845,VALID,69,VALID,0.305469,
2012-06-11, 03:00:05,VALID,1008.55,VALID,0,VALID,104,VALID,0,VALID,23.9863,VALID,69,VALID,0.195703,
2012-06-11, 03:01:05,VALID,1008.58,VALID,0,VALID,104,VALID,0,VALID,23.9455,VALID,69,VALID,0.266406,
2012-06-11, 03:02:05,VALID,1008.59,VALID,0,VALID,104,VALID,0,VALID,23.9473,VALID,69,VALID,0.305859,
2012-06-11, 03:03:05,VALID,1008.59,VALID,0,VALID,104,VALID,0,VALID,23.9473,VALID,69,VALID,0.371484,
2012-06-11, 03:04:05,VALID,1008.58,VALID,0,VALID,104,VALID,0,VALID,23.926,VALID,69,VALID,0.261719,
2012-06-11, 03:05:05,VALID,1008.61,VALID,0,VALID,104,VALID,0,VALID,23.9278,VALID,69,VALID,0.0902344,
2012-06-11, 03:06:05,VALID,1008.61,VALID,0,VALID,104,VALID,0,VALID,23.9084,VALID,69,VALID,0.0457031,
2012-06-11, 03:07:05,VALID,1008.56,VALID,0,VALID,104,VALID,0,VALID,23.9084,VALID,69,VALID,0.0371094,
2012-06-11, 03:08:05,VALID,1008.58,VALID,0,VALID,104,VALID,0,VALID,23.9084,VALID,69,VALID,0.327734,
2012-06-11, 03:09:05,VALID,1008.55,VALID,0,VALID,104,VALID,0,VALID,23.8889,VALID,69,VALID,0.408203,
2012-06-11, 03:10:05,VALID,1008.58,VALID,0,VALID,104,VALID,0,VALID,23.8694,VALID,69,VALID,0.152344,
2012-06-11, 03:11:05,VALID,1008.56,VALID,0,VALID,104,VALID,0,VALID,23.8499,VALID,69,VALID,0.208203,
2012-06-11, 03:12:05,VALID,1008.59,VALID,0,VALID,104,VALID,0,VALID,23.8304,VALID,69,VALID,0.0207031,
2012-06-11, 03:13:05,VALID,1008.58,VALID,0,VALID,104,VALID,0,VALID,23.8304,VALID,69,VALID,0,
2012-06-11, 03:14:05,VALID,1008.59,VALID,0,VALID,104,VALID,0,VALID,23.8304,VALID,69,VALID,0,
2012-06-11, 03:15:05,VALID,1008.58,VALID,0,VALID,104,VALID,0,VALID,23.7914,VALID,69,VALID,0,
2012-06-11, 03:16:05,VALID,1008.55,VALID,0,VALID,104,VALID,0,VALID,23.8127,VALID,69,VALID,0.130859,
2012-06-11, 03:17:05,VALID,1008.55,VALID,0,VALID,104,VALID,0,VALID,23.7914,VALID,69,VALID,0,
2012-06-11, 03:18:05,VALID,1008.55,VALID,0,VALID,104,VALID,0,VALID,23.772,VALID,69,VALID,0,
2012-06-11, 03:19:05,VALID,1008.56,VALID,0,VALID,104,VALID,0,VALID,23.772,VALID,69,VALID,0,
2012-06-11, 03:20:05,VALID,1008.54,VALID,0,VALID,104,VALID,0.112112,VALID,23.7507,VALID,69,VALID,0,
2012-06-11, 03:21:05,VALID,1008.56,VALID,0,VALID,104,VALID,0,VALID,23.7525,VALID,69,VALID,0,
2012-06-11, 03:22:05,VALID,1008.57,VALID,0,VALID,104,VALID,0,VALID,23.7543,VALID,69,VALID,0,
2012-06-11, 03:23:05,VALID,1008.59,VALID,0,VALID,104,VALID,0,VALID,23.733,VALID,69,VALID,0.0742188,
2012-06-11, 03:24:05,VALID,1008.6,VALID,0,VALID,104,VALID,0,VALID,23.733,VALID,69,VALID,0.201172,
2012-06-11, 03:25:05,VALID,1008.61,VALID,0,VALID,104,VALID,0,VALID,23.7543,VALID,69,VALID,0.0121094,
2012-06-11, 03:26:05,VALID,1008.58,VALID,0,VALID,104,VALID,0,VALID,23.7525,VALID,69,VALID,0,
2012-06-11, 03:27:05,VALID,1008.59,VALID,0,VALID,104,VALID,0,VALID,23.772,VALID,69,VALID,0,
2012-06-11, 03:28:05,VALID,1008.58,VALID,0,VALID,104,VALID,0,VALID,23.772,VALID,69,VALID,0,
2012-06-11, 03:29:05,VALID,1008.58,VALID,0,VALID,104,VALID,0,VALID,23.7525,VALID,69,VALID,0,
2012-06-11, 03:30:05,VALID,1008.58,VALID,0,VALID,104,VALID,0,VALID,23.772,VALID,69,VALID,0,
2012-06-11, 03:31:05,VALID,1008.59,VALID,0,VALID,104,VALID,0,VALID,23.772,VALID,69,VALID,0.222266,
2012-06-11, 03:32:05,VALID,1008.6,VALID,0,VALID,104,VALID,0,VALID,23.772,VALID,69,VALID,0.1625,
2012-06-11, 03:33:05,VALID,1008.59,VALID,0,VALID,104,VALID,0,VALID,23.772,VALID,69,VALID,0.0734375,
2012-06-11, 03:34:05,VALID,1008.59,VALID,0,VALID,104,VALID,0,VALID,23.772,VALID,69,VALID,0.0804688,
2012-06-11, 03:35:05,VALID,1008.56,VALID,0,VALID,104,VALID,0,VALID,23.7525,VALID,69,VALID,0.0558594,
2012-06-11, 03:36:05,VALID,1008.59,VALID,0,VALID,104,VALID,0,VALID,23.772,VALID,69,VALID,0.253906,
2012-06-11, 03:37:05,VALID,1008.56,VALID,0,VALID,104,VALID,0,VALID,23.772,VALID,69,VALID,0.0957031,
2012-06-11, 03:38:05,VALID,1008.56,VALID,0,VALID,104,VALID,0,VALID,23.7701,VALID,69,VALID,0.261719,
2012-06-11, 03:39:05,VALID,1008.6,VALID,0,VALID,104,VALID,0,VALID,23.8109,VALID,69,VALID,0.642578,
2012-06-11, 03:40:05,VALID,1008.6,VALID,0,VALID,104,VALID,0,VALID,23.8109,VALID,69,VALID,0.380469,
2012-06-11, 03:41:05,VALID,1008.63,VALID,0,VALID,104,VALID,0,VALID,23.8109,VALID,69,VALID,0.315234,
2012-06-11, 03:42:05,VALID,1008.66,VALID,0,VALID,104,VALID,0,VALID,23.8109,VALID,69,VALID,0.207031,
2012-06-11, 03:43:05,VALID,1008.65,VALID,0,VALID,104,VALID,0,VALID,23.8499,VALID,69,VALID,0.568359,
2012-06-11, 03:44:05,VALID,1008.66,VALID,0,VALID,104,VALID,0,VALID,23.8694,VALID,71,VALID,0.859375,
2012-06-11, 03:45:05,VALID,1008.68,VALID,0,VALID,104,VALID,0,VALID,23.8889,VALID,109,VALID,0.652734,
2012-06-11, 03:46:05,VALID,1008.69,VALID,0,VALID,104,VALID,0,VALID,23.9278,VALID,98,VALID,0.670703,
2012-06-11, 03:47:05,VALID,1008.7,VALID,0,VALID,104,VALID,0,VALID,23.9473,VALID,126,VALID,1.03281,
2012-06-11, 03:48:05,VALID,1008.74,VALID,0,VALID,104,VALID,0,VALID,23.9455,VALID,122,VALID,0.930078,
2012-06-11, 03:49:05,VALID,1008.74,VALID,0,VALID,104,VALID,0,VALID,23.9455,VALID,135,VALID,1.01758,
2012-06-11, 03:50:05,VALID,1008.76,VALID,0,VALID,104,VALID,0,VALID,23.9278,VALID,132,VALID,0.601953,
2012-06-11, 03:51:05,VALID,1008.73,VALID,0,VALID,104,VALID,0,VALID,23.9278,VALID,132,VALID,0.802734,
2012-06-11, 03:52:05,VALID,1008.73,VALID,0,VALID,104,VALID,0,VALID,23.9297,VALID,137,VALID,0.752344,
2012-06-11, 03:53:05,VALID,1008.7,VALID,0,VALID,104,VALID,0,VALID,23.8889,VALID,138,VALID,0.780078,
2012-06-11, 03:54:05,VALID,1008.7,VALID,0,VALID,104,VALID,0,VALID,23.8907,VALID,138,VALID,0.838672,
2012-06-11, 03:55:05,VALID,1008.7,VALID,0,VALID,104,VALID,0,VALID,23.8712,VALID,138,VALID,0.523438,
2012-06-11, 03:56:05,VALID,1008.7,VALID,0,VALID,104,VALID,0,VALID,23.8712,VALID,138,VALID,0.673437,
2012-06-11, 03:57:05,VALID,1008.67,VALID,0,VALID,104,VALID,0,VALID,23.8499,VALID,138,VALID,0.323828,
2012-06-11, 03:58:05,VALID,1008.69,VALID,0,VALID,104,VALID,0,VALID,23.8304,VALID,138,VALID,0.753516,
2012-06-11, 03:59:05,VALID,1008.67,VALID,0,VALID,104,VALID,0,VALID,23.8517,VALID,137,VALID,0.503906,
2012-06-11, 04:00:05,VALID,1008.69,VALID,0,VALID,104,VALID,0,VALID,23.8517,VALID,134,VALID,0.814453,
2012-06-11, 04:01:05,VALID,1008.69,VALID,0,VALID,104,VALID,0,VALID,23.8109,VALID,135,VALID,0.508594,